Weather in Bolshiye Rymy

Russia / Kostroma Oblast     57°28′55″N   43°52′55″E
В апреле 2022 года жителям России запретили посещать сайт meteo.paraplan.net по решению Генеральной прокуратуры. Аудитория сайта уменьшилась в 10 раз. Владельцы сайта не видят смысла в поддержке погодного сервера в таких условиях. Сайт будет закрыт в октябре.
temp.,
°C
wind,
m/s
gust,
m/s
humid.,
%
clouds,
%
prec.,
mm/h
press.,
hPa
HPBL,
m
29 september, thu
thu2900:00+2e61395100 1.9 1008580
03:00+2e51296100 3.4 1008499
06:00+3e4997100 0.3 1008370
09:00+4e3897100 0.3 1009307
12:00+5e3697100 0.1 1010283
15:00+6ese2597100 0.1 1012257
18:00+6ese1399100 0.0 1014105
21:00+6e1198100 0.0 101636
30 september, fri
fri3000:00+6ese239568 0.0 101770
03:00+5ese269790 0.0 1018127
06:00+6se2697100 0.0 1019177
09:00+9sse3890100 0.0 1020281
12:00+12sse478037 0.0 1020535
15:00+15sse4776100 0.0 1019914
18:00+11se41190100 0.0 1020414
21:00+11sse41289100 0.0 1019417
1 october, sat
sat100:00+10sse4129590 0.0 1019318
03:00+11sse41290100 0.0 1018401
06:00+11sse41295100 0.9 1017517
09:00+12s3996100 1.6 1017400
12:00+12s2597100 0.1 1017260
15:00+12s2598100 0.1 1016274
18:00+12ese2499100 1.6 1015150
21:00+12e2499100 3.4 1013201
2 october, sun
sun200:00+12sse3999100 2.7 1011513
03:00+13s3899100 3.1 1010471
06:00+12se2699100 1.2 1009212
09:00+12sse3899100 5.9 1007368
12:00+14wsw4690100 0.1 1007577
15:00+12w2696100 1.5 1008481
18:00+10nnw369495 0.1 1010388
21:00+8nnw269464 0.1 1012381
3 october, mon
mon300:00+8n269636 0.0 1013273
03:00+6nne259845 0.0 1014200
06:00+8ne259766 0.0 1013172
09:00+9ene379299 0.0 1013262
12:00+12e4787100 0.0 1013374
15:00+12e41091100 0.0 1013443
18:00+12e51398100 0.1 1012437
21:00+14se51392100 0.2 1012575